Tracking 25710 objects as of 6-Jul-2022
HD Live streaming from Space Station
objects crossing your sky now

DMSP 5D-2 F13 DEB

Track DMSP 5D-2 F13 DEB now!
10-day predictions


NORAD ID: 42287
Int'l Code: 1995-015HD
Perigee: 732.5 km
Apogee: 743.1 km
Inclination: 98.9 °
Period: 99.4 minutes
Semi major axis: 7108 km
RCS: Unknown
Launch date: March 24, 1995
Source: United States (US)
Launch site: AIR FORCE WESTERN TEST RANGE (AFWTR)

Note: This is SATELLITE DEBRIS
aabbcc
Your satellite tracking list
Your tracking list is empty




NASA's NSSDC Master Catalog

Two Line Element Set (TLE):
1 42287U 95015HD  22187.43641597  .00014123  00000-0  37703-2 0  9995
2 42287  98.9114 251.1547 0007412  36.8120 323.3579 14.48466645373829
Source of the keplerian elements: AFSPC